SCOUT A DEB, 2140

Orbit data source: Space-Track

SCOUT A DEB, 2140 is space debris in LEO originally from a launch on Fri, 28 Jan 1966 UTC launched from the Air Force Western Test Range (AFWTR). Debris objects in space refer to the collection of defunct objects orbiting the Earth. Examples of debris include non-operational satellites, rocket bodies, and fragments generated from explosions, collisions, or faulty payload assembly.

Loading next visibility...
Identifier
2140, 1966-005C
Orbit
LEO
Last TLE update
8 hours ago
Origin
Manufacturer
Unknown
Mission
Spacecraft
Bus & Motor
Unknown
Mass
Unknown
Launch date (UTC)
1966-01-28 (59 years ago)
Launch vehicle
Unknown
Launch site
Air Force Western Test Range (AFWTR)
Object type
Payload
Rocket body
Debris
Shape & HBR
Unknown
Radar Cross Section
Small (<0.1 m²)

Expand to show TLE details & history

TLE from 8 hours ago
0 SCOUT A DEB
1 02140U 66005C   25183.87175360  .00000152  00000-0  16437-3 0  9992
2 02140  89.9482  52.1844 0318256 113.8548 249.6299 13.48247181911380
Epoch: 2025-07-02T20:55Z
TLE epoch observation values (Epoch: 2025-07-02T20:55:19.511Z)
Latitude
0.00003°
Longitude
177.20647°
Altitude
1,170.822 km
Speed
7.224 km/s
True Right ascension
03h 28m 44s
True Declination
0° 00' 00"
Sunlit
Object was in daylight at epoch
Visualization orbit readout
Latitude
18.0781°
Longitude
-2.81206°
Altitude
921.203 km
Speed
7.472 km/s
Apparent Right ascension
13h 21m 44s
Apparent Declination
-34° 35' 30"
Sunlit
Object is in daylight
Visualization observer readout
Local Sidereal Time
16:34:26
Azimuth
217.91° SW
Elevation
3.255°
Doppler factor
1
Orbital elements
Apogee altitude
1,312.987 km
Perigee altitude
838.538 km
Semi-major axis
7,453.899 km
Eccentricity
0.03183
Inclination
89.9482°
RAAN
52.1844°
Arg. of periapsis
113.8548°
True anomaly
Unknown
Mean anomaly
249.6299°
Eccentric anomaly
Unknown
Mean motion
3.37262 °/min
Orbital period
106.74 mins
BSTAR
0.00016437
Loading maneuver chart data...
Loading SW <> Apogee altitude chart data...
Loading historical data...
Loading historical data...
Loading historical data...
Loading historical data...
Loading historical data...
Loading historical data...
Loading historical data...

SCOUT A DEB Visibility forecast

Observer location: undefined°, undefined°

Span
Click to sort rows by Start time (UTC) header in descending order
Start Az.
Max El. time (UTC)
Max El. Az.
Max El.
End time (UTC)
End Az.
10 mins2025-07-03 14:51:01.635Z143.169° SSE2025-07-03 14:56:01.635Z82.321° E32.198°2025-07-03 15:01:01.635Z16.734° NNE
8 mins2025-07-03 16:39:01.635Z227.749° WSW2025-07-03 16:43:01.635Z280.18° WNW26.043°2025-07-03 16:47:01.635Z329.303° NNW
9 mins2025-07-04 03:48:01.635Z354.967° N2025-07-04 03:52:01.635Z278.562° WNW43.272°2025-07-04 03:57:01.635Z193.419° SSW
|